| time (UTC) | temp F | wind direction | speed MPH | gust MPH | rain 1hr in | rain 24hr in | rain mn in | humidity % | barometer mb |
| 20260507191624 | 73 | 0 | 6.0 | 20.0 | 0.00 | 0.00 | 0.00 | 28 | 1014.2 |
| 20260507191509 | 73 | 0 | 6.0 | 20.0 | 0.00 | 0.00 | 0.00 | 28 | 1014.2 |
| 20260507190841 | 73 | 0 | 7.0 | 20.0 | 0.00 | 0.00 | 0.00 | 27 | 1014.3 |
| 20260507190337 | 74 | 0 | 7.0 | 17.0 | 0.00 | 0.00 | 0.00 | 28 | 1014.4 |
| 20260507185811 | 73 | 0 | 6.0 | 13.0 | 0.00 | 0.00 | 0.00 | 27 | 1014.3 |
| 20260507185247 | 74 | 0 | 5.0 | 11.0 | 0.00 | 0.00 | 0.00 | 27 | 1014.4 |
| 20260507184728 | 73 | 0 | 5.0 | 14.0 | 0.00 | 0.00 | 0.00 | 27 | 1014.4 |
| 20260507184226 | 73 | 0 | 5.0 | 14.0 | 0.00 | 0.00 | 0.00 | 28 | 1014.4 |
| 20260507183726 | 73 | 0 | 5.0 | 11.0 | 0.00 | 0.00 | 0.00 | 29 | 1014.5 |
| 20260507183226 | 72 | 0 | 5.0 | 11.0 | 0.00 | 0.00 | 0.00 | 29 | 1014.5 |
| 20260507182723 | 72 | 0 | 6.0 | 12.0 | 0.00 | 0.00 | 0.00 | 29 | 1014.6 |
| 20260507182209 | 72 | 0 | 7.0 | 13.0 | 0.00 | 0.00 | 0.00 | 29 | 1014.7 |
| 20260507181633 | 72 | 0 | 6.0 | 13.0 | 0.00 | 0.00 | 0.00 | 28 | 1014.7 |
| 20260507181405 | 72 | 0 | 6.0 | 16.0 | 0.00 | 0.00 | 0.00 | 31 | 1014.7 |
| 20260507181240 | 72 | 0 | 6.0 | 16.0 | 0.00 | 0.00 | 0.00 | 31 | 1014.7 |
| 20260507180616 | 71 | 0 | 8.0 | 16.0 | 0.00 | 0.00 | 0.00 | 30 | 1014.8 |
| 20260507180117 | 71 | 0 | 8.0 | 13.0 | 0.00 | 0.00 | 0.00 | 29 | 1014.7 |
| 20260507175606 | 71 | 0 | 8.0 | 17.0 | 0.00 | 0.00 | 0.00 | 29 | 1014.8 |
| 20260507175434 | 71 | 0 | 8.0 | 17.0 | 0.00 | 0.00 | 0.00 | 29 | 1014.8 |
| 20260507175357 | 71 | 0 | 8.0 | 17.0 | 0.00 | 0.00 | 0.00 | 29 | 1014.8 |
| 20260507174823 | 70 | 0 | 9.0 | 15.0 | 0.00 | 0.00 | 0.00 | 30 | 1014.8 |
| 20260507174709 | 70 | 0 | 9.0 | 15.0 | 0.00 | 0.00 | 0.00 | 30 | 1014.8 |
| 20260507174106 | 70 | 0 | 8.0 | 15.0 | 0.00 | 0.00 | 0.00 | 32 | 1014.8 |
| 20260507173548 | 70 | 0 | 7.0 | 13.0 | 0.00 | 0.00 | 0.00 | 34 | 1014.9 |
| 20260507173302 | 70 | 0 | 8.0 | 15.0 | 0.00 | 0.00 | 0.00 | 34 | 1015.0 |
| 20260507173132 | 70 | 0 | 8.0 | 15.0 | 0.00 | 0.00 | 0.00 | 34 | 1015.0 |
| 20260507172520 | 69 | 0 | 8.0 | 15.0 | 0.00 | 0.00 | 0.00 | 35 | 1015.0 |
| 20260507172253 | 69 | 0 | 8.0 | 16.0 | 0.00 | 0.00 | 0.00 | 35 | 1015.2 |
| 20260507172121 | 69 | 0 | 8.0 | 16.0 | 0.00 | 0.00 | 0.00 | 35 | 1015.2 |
| 20260507171522 | 69 | 0 | 9.0 | 16.0 | 0.00 | 0.00 | 0.00 | 35 | 1015.3 |
| 20260507171017 | 69 | 0 | 9.0 | 19.0 | 0.00 | 0.00 | 0.00 | 34 | 1015.4 |
| 20260507170525 | 69 | 0 | 10.0 | 19.0 | 0.00 | 0.00 | 0.00 | 33 | 1015.3 |
| 20260507170019 | 69 | 0 | 7.0 | 17.0 | 0.00 | 0.00 | 0.00 | 34 | 1015.3 |
| 20260507165517 | 69 | 0 | 7.0 | 16.0 | 0.00 | 0.00 | 0.00 | 37 | 1015.4 |
| 20260507164959 | 68 | 0 | 9.0 | 16.0 | 0.00 | 0.00 | 0.00 | 35 | 1015.3 |
| 20260507164502 | 67 | 0 | 9.0 | 18.0 | 0.00 | 0.00 | 0.00 | 36 | 1015.3 |
| 20260507163958 | 67 | 0 | 9.0 | 18.0 | 0.00 | 0.00 | 0.00 | 37 | 1015.4 |
| 20260507163503 | 66 | 0 | 8.0 | 16.0 | 0.00 | 0.00 | 0.00 | 39 | 1015.4 |
| 20260507162958 | 66 | 0 | 8.0 | 13.0 | 0.00 | 0.00 | 0.00 | 41 | 1015.5 |
| 20260507162458 | 66 | 0 | 8.0 | 15.0 | 0.00 | 0.00 | 0.00 | 42 | 1015.5 |
| 20260507161935 | 65 | 0 | 8.0 | 15.0 | 0.00 | 0.00 | 0.00 | 41 | 1015.5 |
| 20260507161424 | 65 | 0 | 10.0 | 17.0 | 0.00 | 0.00 | 0.00 | 43 | 1015.5 |
| 20260507160923 | 64 | 0 | 9.0 | 17.0 | 0.00 | 0.00 | 0.00 | 41 | 1015.6 |
| 20260507160419 | 64 | 0 | 9.0 | 18.0 | 0.00 | 0.00 | 0.00 | 43 | 1015.7 |
| 20260507160136 | 64 | 0 | 10.0 | 18.0 | 0.00 | 0.00 | 0.00 | 42 | 1015.7 |
| 20260507160018 | 64 | 0 | 10.0 | 18.0 | 0.00 | 0.00 | 0.00 | 42 | 1015.7 |
| 20260507155347 | 64 | 0 | 9.0 | 14.0 | 0.00 | 0.00 | 0.00 | 42 | 1015.7 |
| 20260507155055 | 63 | 0 | 8.0 | 14.0 | 0.00 | 0.00 | 0.00 | 43 | 1015.7 |
| 20260507154926 | 63 | 0 | 8.0 | 14.0 | 0.00 | 0.00 | 0.00 | 43 | 1015.7 |
| 20260507154256 | 62 | 0 | 8.0 | 16.0 | 0.00 | 0.00 | 0.00 | 46 | 1015.7 |
| 20260507153727 | 62 | 0 | 8.0 | 16.0 | 0.00 | 0.00 | 0.00 | 47 | 1015.7 |
| 20260507153430 | 61 | 0 | 9.0 | 15.0 | 0.00 | 0.00 | 0.00 | 48 | 1015.7 |
| 20260507153305 | 61 | 0 | 9.0 | 15.0 | 0.00 | 0.00 | 0.00 | 48 | 1015.7 |
| 20260507152701 | 61 | 0 | 10.0 | 15.0 | 0.00 | 0.00 | 0.00 | 47 | 1015.8 |
| 20260507152154 | 60 | 0 | 9.0 | 16.0 | 0.00 | 0.00 | 0.00 | 47 | 1015.8 |
| 20260507151627 | 60 | 0 | 8.0 | 15.0 | 0.00 | 0.00 | 0.00 | 48 | 1015.8 |
| 20260507151106 | 59 | 0 | 9.0 | 16.0 | 0.00 | 0.00 | 0.00 | 49 | 1015.8 |
| 20260507150559 | 58 | 0 | 9.0 | 20.0 | 0.00 | 0.00 | 0.00 | 49 | 1015.8 |
| 20260507150111 | 58 | 0 | 10.0 | 20.0 | 0.00 | 0.00 | 0.00 | 50 | 1015.8 |
| 20260507145601 | 57 | 0 | 8.0 | 18.0 | 0.00 | 0.00 | 0.00 | 51 | 1015.8 |
| 20260507145059 | 56 | 0 | 8.0 | 15.0 | 0.00 | 0.00 | 0.00 | 55 | 1015.8 |
| 20260507144555 | 56 | 0 | 9.0 | 16.0 | 0.00 | 0.00 | 0.00 | 58 | 1015.9 |
| 20260507144315 | 55 | 0 | 8.0 | 16.0 | 0.00 | 0.00 | 0.00 | 58 | 1016.0 |
| 20260507144156 | 55 | 0 | 8.0 | 16.0 | 0.00 | 0.00 | 0.00 | 58 | 1016.0 |
| 20260507143523 | 54 | 0 | 8.0 | 15.0 | 0.00 | 0.00 | 0.00 | 61 | 1015.8 |
| 20260507142957 | 53 | 0 | 8.0 | 15.0 | 0.00 | 0.00 | 0.00 | 63 | 1015.8 |
| 20260507142452 | 52 | 0 | 8.0 | 14.0 | 0.00 | 0.00 | 0.00 | 65 | 1015.9 |
| 20260507141926 | 51 | 0 | 8.0 | 14.0 | 0.00 | 0.01 | 0.00 | 67 | 1015.8 |
| 20260507141400 | 50 | 0 | 7.0 | 14.0 | 0.00 | 0.01 | 0.00 | 69 | 1015.9 |
| 20260507140837 | 49 | 0 | 7.0 | 13.0 | 0.00 | 0.01 | 0.00 | 71 | 1016.0 |
| 20260507140328 | 49 | 0 | 7.0 | 15.0 | 0.00 | 0.01 | 0.00 | 72 | 1016.0 |
| 20260507135804 | 48 | 0 | 8.0 | 15.0 | 0.00 | 0.01 | 0.00 | 73 | 1016.0 |
| 20260507135754 | 47 | 0 | 7.0 | 15.0 | 0.00 | 0.01 | 0.00 | 74 | 1016.0 |
| 20260507135403 | 47 | 0 | 7.0 | 15.0 | 0.00 | 0.01 | 0.00 | 74 | 1016.0 |
| 20260507134742 | 46 | 0 | 6.0 | 15.0 | 0.00 | 0.01 | 0.00 | 75 | 1016.0 |
| 20260507134217 | 46 | 0 | 7.0 | 11.0 | 0.00 | 0.02 | 0.00 | 77 | 1016.1 |
| 20260507133715 | 45 | 0 | 7.0 | 12.0 | 0.00 | 0.02 | 0.00 | 78 | 1016.1 |
| 20260507133208 | 44 | 0 | 7.0 | 13.0 | 0.00 | 0.02 | 0.00 | 79 | 1016.0 |
| 20260507132706 | 44 | 0 | 6.0 | 13.0 | 0.00 | 0.03 | 0.00 | 79 | 1016.0 |
| 20260507132202 | 43 | 0 | 7.0 | 13.0 | 0.00 | 0.03 | 0.00 | 80 | 1016.0 |
| 20260507131702 | 42 | 0 | 7.0 | 14.0 | 0.00 | 0.03 | 0.00 | 80 | 1016.0 |
| 20260507131156 | 42 | 0 | 7.0 | 14.0 | 0.00 | 0.04 | 0.00 | 81 | 1016.0 |
| 20260507130641 | 42 | 0 | 7.0 | 13.0 | 0.00 | 0.04 | 0.00 | 81 | 1015.9 |
| 20260507130115 | 41 | 0 | 7.0 | 13.0 | 0.00 | 0.04 | 0.00 | 81 | 1015.9 |
| 20260507125614 | 41 | 0 | 7.0 | 14.0 | 0.00 | 0.04 | 0.00 | 81 | 1016.0 |
| 20260507125108 | 40 | 0 | 7.0 | 14.0 | 0.00 | 0.04 | 0.00 | 82 | 1015.8 |
| 20260507124604 | 40 | 0 | 6.0 | 14.0 | 0.00 | 0.04 | 0.00 | 82 | 1015.8 |
| 20260507124057 | 40 | 0 | 7.0 | 14.0 | 0.00 | 0.05 | 0.00 | 82 | 1015.7 |
| 20260507123555 | 39 | 0 | 7.0 | 14.0 | 0.00 | 0.05 | 0.00 | 83 | 1015.7 |
| 20260507123051 | 39 | 0 | 6.0 | 12.0 | 0.00 | 0.05 | 0.00 | 83 | 1015.8 |
| 20260507122526 | 39 | 0 | 5.0 | 13.0 | 0.00 | 0.06 | 0.00 | 83 | 1016.0 |
| 20260507122022 | 39 | 0 | 6.0 | 14.0 | 0.00 | 0.06 | 0.00 | 83 | 1016.0 |
| 20260507121514 | 39 | 0 | 6.0 | 14.0 | 0.00 | 0.06 | 0.00 | 83 | 1016.1 |
| 20260507121011 | 39 | 0 | 6.0 | 12.0 | 0.00 | 0.07 | 0.00 | 83 | 1016.1 |
| 20260507120935 | 39 | 0 | 6.0 | 12.0 | 0.00 | 0.07 | 0.00 | 84 | 1016.1 |
| 20260507120555 | 39 | 0 | 6.0 | 12.0 | 0.00 | 0.07 | 0.00 | 84 | 1016.1 |
| 20260507115954 | 39 | 0 | 5.0 | 10.0 | 0.00 | 0.07 | 0.00 | 84 | 1016.1 |
| 20260507115440 | 38 | 0 | 5.0 | 10.0 | 0.00 | 0.08 | 0.00 | 84 | 1016.0 |
| 20260507114935 | 38 | 0 | 6.0 | 13.0 | 0.00 | 0.08 | 0.00 | 84 | 1016.1 |
| 20260507114420 | 38 | 0 | 5.0 | 12.0 | 0.00 | 0.08 | 0.00 | 84 | 1016.3 |
| 20260507114409 | 38 | 0 | 6.0 | 11.0 | 0.00 | 0.09 | 0.00 | 85 | 1016.3 |
| 20260507114022 | 38 | 0 | 6.0 | 11.0 | 0.00 | 0.09 | 0.00 | 85 | 1016.3 |
| 20260507113406 | 38 | 0 | 6.0 | 12.0 | 0.00 | 0.09 | 0.00 | 85 | 1016.4 |
| 20260507112904 | 38 | 0 | 5.0 | 12.0 | 0.00 | 0.09 | 0.00 | 85 | 1016.4 |
| 20260507112336 | 38 | 0 | 6.0 | 13.0 | 0.00 | 0.10 | 0.00 | 86 | 1016.4 |
| 20260507111811 | 38 | 0 | 5.0 | 13.0 | 0.00 | 0.10 | 0.00 | 86 | 1016.4 |
| 20260507111305 | 38 | 0 | 5.0 | 10.0 | 0.00 | 0.11 | 0.00 | 86 | 1016.4 |
| 20260507110801 | 38 | 0 | 5.0 | 10.0 | 0.00 | 0.11 | 0.00 | 86 | 1016.4 |
| 20260507110523 | 38 | 0 | 5.0 | 10.0 | 0.00 | 0.12 | 0.00 | 86 | 1016.5 |
| 20260507110405 | 38 | 0 | 5.0 | 10.0 | 0.00 | 0.12 | 0.00 | 86 | 1016.5 |
| 20260507105734 | 38 | 0 | 5.0 | 15.0 | 0.00 | 0.12 | 0.00 | 86 | 1016.5 |
| 20260507105230 | 38 | 0 | 5.0 | 15.0 | 0.00 | 0.13 | 0.00 | 87 | 1016.6 |
| 20260507104923 | 38 | 0 | 5.0 | 12.0 | 0.00 | 0.13 | 0.00 | 87 | 1016.8 |
| 20260507104807 | 38 | 0 | 5.0 | 12.0 | 0.00 | 0.13 | 0.00 | 87 | 1016.8 |
| 20260507104407 | 38 | 0 | 6.0 | 12.0 | 0.00 | 0.14 | 0.00 | 87 | 1016.9 |
| 20260507104242 | 38 | 0 | 6.0 | 12.0 | 0.00 | 0.14 | 0.00 | 87 | 1016.9 |
| 20260507103639 | 38 | 0 | 6.0 | 12.0 | 0.00 | 0.15 | 0.00 | 87 | 1017.0 |
| 20260507103128 | 38 | 0 | 6.0 | 11.0 | 0.00 | 0.15 | 0.00 | 87 | 1017.0 |
| 20260507102844 | 38 | 0 | 6.0 | 14.0 | 0.00 | 0.16 | 0.00 | 87 | 1017.0 |
| 20260507102720 | 38 | 0 | 6.0 | 14.0 | 0.00 | 0.16 | 0.00 | 87 | 1017.0 |
| 20260507102052 | 38 | 0 | 6.0 | 14.0 | 0.00 | 0.16 | 0.00 | 87 | 1017.1 |
| 20260507101527 | 38 | 0 | 6.0 | 13.0 | 0.00 | 0.16 | 0.00 | 87 | 1017.2 |
| 20260507101232 | 38 | 0 | 6.0 | 12.0 | 0.00 | 0.16 | 0.00 | 87 | 1017.4 |
| 20260507101114 | 38 | 0 | 6.0 | 12.0 | 0.00 | 0.16 | 0.00 | 87 | 1017.4 |
| 20260507100459 | 38 | 0 | 6.0 | 11.0 | 0.00 | 0.16 | 0.00 | 87 | 1017.4 |
| 20260507100005 | 38 | 0 | 6.0 | 13.0 | 0.00 | 0.16 | 0.00 | 86 | 1017.4 |
| 20260507095459 | 38 | 0 | 6.0 | 13.0 | 0.00 | 0.17 | 0.00 | 86 | 1017.5 |
| 20260507095000 | 38 | 0 | 6.0 | 13.0 | 0.00 | 0.17 | 0.00 | 86 | 1017.5 |
| 20260507094446 | 38 | 0 | 6.0 | 13.0 | 0.00 | 0.17 | 0.00 | 86 | 1017.5 |
| 20260507093943 | 38 | 0 | 6.0 | 13.0 | 0.00 | 0.18 | 0.00 | 86 | 1017.6 |
| 20260507093442 | 38 | 0 | 7.0 | 12.0 | 0.00 | 0.18 | 0.00 | 86 | 1017.5 |
| 20260507092931 | 38 | 0 | 6.0 | 13.0 | 0.00 | 0.18 | 0.00 | 86 | 1017.6 |
| 20260507092412 | 38 | 0 | 5.0 | 13.0 | 0.00 | 0.18 | 0.00 | 87 | 1017.7 |
| 20260507091915 | 38 | 0 | 5.0 | 12.0 | 0.00 | 0.19 | 0.00 | 87 | 1017.8 |
| 20260507091413 | 38 | 0 | 5.0 | 11.0 | 0.00 | 0.19 | 0.00 | 87 | 1017.8 |
| 20260507090914 | 38 | 0 | 4.0 | 11.0 | 0.00 | 0.19 | 0.00 | 87 | 1017.9 |
| 20260507090357 | 38 | 0 | 5.0 | 11.0 | 0.00 | 0.19 | 0.00 | 87 | 1018.0 |
| 20260507085836 | 37 | 0 | 5.0 | 11.0 | 0.00 | 0.19 | 0.00 | 88 | 1018.0 |
| 20260507085338 | 37 | 0 | 5.0 | 9.0 | 0.00 | 0.19 | 0.00 | 88 | 1018.1 |
| 20260507084816 | 37 | 0 | 5.0 | 9.0 | 0.00 | 0.19 | 0.00 | 88 | 1018.2 |
| 20260507084304 | 37 | 0 | 5.0 | 11.0 | 0.00 | 0.19 | 0.00 | 88 | 1018.1 |
| 20260507084106 | 37 | 0 | 5.0 | 11.0 | 0.00 | 0.19 | 0.00 | 88 | 1018.2 |
| 20260507084035 | 37 | 0 | 5.0 | 11.0 | 0.00 | 0.19 | 0.00 | 88 | 1018.2 |
| 20260507083213 | 37 | 0 | 5.0 | 11.0 | 0.00 | 0.19 | 0.00 | 89 | 1018.3 |
| 20260507082655 | 37 | 0 | 5.0 | 11.0 | 0.00 | 0.19 | 0.00 | 89 | 1018.4 |
| 20260507082532 | 37 | 0 | 5.0 | 11.0 | 0.00 | 0.19 | 0.00 | 89 | 1018.6 |
| 20260507082444 | 37 | 0 | 5.0 | 11.0 | 0.00 | 0.19 | 0.00 | 89 | 1018.6 |
| 20260507082020 | 37 | 0 | 5.0 | 11.0 | 0.00 | 0.19 | 0.00 | 89 | 1018.6 |
| 20260507081948 | 37 | 0 | 5.0 | 11.0 | 0.00 | 0.19 | 0.00 | 89 | 1018.6 |
| 20260507081130 | 37 | 0 | 5.0 | 12.0 | 0.00 | 0.19 | 0.00 | 89 | 1018.7 |
| 20260507080634 | 37 | 0 | 4.0 | 12.0 | 0.00 | 0.19 | 0.00 | 89 | 1018.8 |
| 20260507080127 | 37 | 0 | 4.0 | 9.0 | 0.00 | 0.19 | 0.00 | 89 | 1018.8 |
| 20260507075602 | 37 | 0 | 3.0 | 9.0 | 0.00 | 0.19 | 0.00 | 89 | 1018.9 |
| 20260507075034 | 37 | 0 | 4.0 | 8.0 | 0.00 | 0.19 | 0.00 | 90 | 1018.9 |
| 20260507074528 | 37 | 0 | 4.0 | 8.0 | 0.00 | 0.19 | 0.00 | 90 | 1019.0 |
| 20260507074002 | 37 | 0 | 3.0 | 8.0 | 0.00 | 0.19 | 0.00 | 90 | 1019.0 |
| 20260507073721 | 37 | 0 | 4.0 | 8.0 | 0.00 | 0.20 | 0.00 | 89 | 1019.2 |
| 20260507073553 | 37 | 0 | 4.0 | 8.0 | 0.00 | 0.20 | 0.00 | 89 | 1019.2 |
| 20260507073428 | 37 | 0 | 4.0 | 10.0 | 0.00 | 0.20 | 0.00 | 89 | 1019.3 |
| 20260507073354 | 37 | 0 | 4.0 | 10.0 | 0.00 | 0.20 | 0.00 | 89 | 1019.3 |
| 20260507072347 | 37 | 0 | 3.0 | 10.0 | 0.00 | 0.20 | 0.00 | 89 | 1019.3 |
| 20260507071823 | 37 | 0 | 3.0 | 8.0 | 0.00 | 0.20 | 0.00 | 89 | 1019.4 |
| 20260507071322 | 37 | 0 | 3.0 | 8.0 | 0.00 | 0.20 | 0.00 | 90 | 1019.5 |
| 20260507070824 | 37 | 0 | 3.0 | 9.0 | 0.00 | 0.20 | 0.00 | 90 | 1019.7 |
| 20260507070321 | 37 | 0 | 3.0 | 9.0 | 0.00 | 0.20 | 0.00 | 90 | 1019.5 |
| 20260507065816 | 37 | 0 | 4.0 | 11.0 | 0.00 | 0.20 | 0.00 | 89 | 1019.7 |
| 20260507065314 | 37 | 0 | 4.0 | 6.0 | 0.00 | 0.21 | 0.00 | 89 | 1019.8 |
| 20260507064849 | 37 | 0 | 3.0 | 6.0 | 0.00 | 0.21 | 0.00 | 89 | 1019.9 |
| 20260507064807 | 37 | 0 | 3.0 | 6.0 | 0.00 | 0.21 | 0.00 | 89 | 1019.8 |
| 20260507064536 | 37 | 0 | 3.0 | 6.0 | 0.00 | 0.21 | 0.00 | 89 | 1019.9 |
| 20260507063737 | 38 | 0 | 3.0 | 6.0 | 0.00 | 0.21 | 0.00 | 89 | 1020.0 |
| 20260507063223 | 38 | 0 | 3.0 | 8.0 | 0.00 | 0.21 | 0.00 | 89 | 1019.9 |
| 20260507062721 | 38 | 0 | 4.0 | 9.0 | 0.00 | 0.22 | 0.00 | 89 | 1020.1 |
| 20260507062208 | 38 | 0 | 4.0 | 11.0 | 0.00 | 0.22 | 0.00 | 90 | 1020.3 |
| 20260507061710 | 38 | 0 | 3.0 | 11.0 | 0.00 | 0.22 | 0.00 | 90 | 1020.3 |
| 20260507061412 | 38 | 0 | 3.0 | 6.0 | 0.00 | 0.22 | 0.00 | 90 | 1020.4 |
| 20260507061250 | 38 | 0 | 3.0 | 6.0 | 0.00 | 0.22 | 0.00 | 90 | 1020.4 |
| 20260507060640 | 38 | 0 | 3.0 | 9.0 | 0.00 | 0.22 | 0.00 | 90 | 1020.4 |
| 20260507060115 | 38 | 0 | 4.0 | 9.0 | 0.00 | 0.23 | 0.00 | 90 | 1020.3 |
| 20260507055546 | 38 | 0 | 4.0 | 9.0 | 0.00 | 0.23 | 0.00 | 90 | 1020.4 |
| 20260507055020 | 38 | 0 | 3.0 | 8.0 | 0.00 | 0.23 | 0.00 | 90 | 1020.4 |
| 20260507054516 | 38 | 0 | 3.0 | 6.0 | 0.00 | 0.24 | 0.00 | 90 | 1020.4 |
| 20260507054018 | 38 | 0 | 3.0 | 6.0 | 0.00 | 0.24 | 0.00 | 90 | 1020.5 |
| 20260507053514 | 38 | 0 | 2.0 | 6.0 | 0.00 | 0.25 | 0.00 | 89 | 1020.5 |
| 20260507052945 | 38 | 0 | 2.0 | 6.0 | 0.00 | 0.26 | 0.00 | 89 | 1020.4 |
| 20260507052419 | 38 | 0 | 2.0 | 8.0 | 0.00 | 0.26 | 0.00 | 89 | 1020.3 |
| 20260507051916 | 38 | 0 | 3.0 | 8.0 | 0.00 | 0.26 | 0.00 | 89 | 1020.3 |
| 20260507051349 | 38 | 0 | 3.0 | 6.0 | 0.00 | 0.26 | 0.00 | 89 | 1020.4 |
| 20260507050843 | 38 | 0 | 2.0 | 6.0 | 0.00 | 0.27 | 0.00 | 89 | 1020.4 |
| 20260507050347 | 38 | 0 | 2.0 | 6.0 | 0.00 | 0.27 | 0.00 | 89 | 1020.6 |
| 20260507045835 | 38 | 0 | 3.0 | 6.0 | 0.00 | 0.27 | 0.27 | 89 | 1020.6 |
| 20260507045335 | 38 | 0 | 2.0 | 6.0 | 0.00 | 0.28 | 0.27 | 89 | 1020.8 |
| 20260507045138 | 38 | 0 | 3.0 | 8.0 | 0.00 | 0.29 | 0.27 | 88 | 1020.8 |
| 20260507045102 | 38 | 0 | 3.0 | 8.0 | 0.00 | 0.29 | 0.27 | 88 | 1020.8 |
| 20260507044306 | 38 | 0 | 3.0 | 9.0 | 0.00 | 0.29 | 0.27 | 88 | 1021.0 |
| 20260507043738 | 38 | 0 | 3.0 | 9.0 | 0.00 | 0.29 | 0.27 | 88 | 1020.9 |
| 20260507043235 | 39 | 0 | 2.0 | 9.0 | 0.00 | 0.30 | 0.27 | 88 | 1021.0 |
| 20260507042709 | 39 | 0 | 2.0 | 6.0 | 0.00 | 0.30 | 0.27 | 88 | 1021.1 |
| 20260507042157 | 39 | 0 | 2.0 | 6.0 | 0.00 | 0.30 | 0.27 | 88 | 1021.0 |
| 20260507041647 | 39 | 0 | 2.0 | 6.0 | 0.00 | 0.30 | 0.27 | 87 | 1021.1 |
| 20260507041122 | 39 | 0 | 2.0 | 5.0 | 0.00 | 0.31 | 0.27 | 87 | 1021.1 |
| 20260507040618 | 40 | 0 | 2.0 | 5.0 | 0.00 | 0.31 | 0.27 | 87 | 1021.1 |
| 20260507040117 | 40 | 0 | 2.0 | 5.0 | 0.00 | 0.31 | 0.27 | 87 | 1021.1 |
| 20260507035551 | 40 | 0 | 2.0 | 5.0 | 0.00 | 0.32 | 0.27 | 87 | 1021.1 |
| 20260507035045 | 40 | 0 | 2.0 | 5.0 | 0.00 | 0.32 | 0.27 | 87 | 1021.2 |
| 20260507034518 | 40 | 0 | 2.0 | 5.0 | 0.00 | 0.32 | 0.27 | 86 | 1021.1 |
| 20260507034239 | 40 | 0 | 3.0 | 5.0 | 0.00 | 0.32 | 0.27 | 86 | 1021.1 |
| 20260507034119 | 40 | 0 | 3.0 | 5.0 | 0.00 | 0.32 | 0.27 | 86 | 1021.1 |
| 20260507033449 | 40 | 0 | 2.0 | 8.0 | 0.00 | 0.33 | 0.27 | 86 | 1021.1 |
| 20260507032948 | 40 | 0 | 2.0 | 5.0 | 0.00 | 0.33 | 0.27 | 86 | 1021.1 |
| 20260507032436 | 40 | 0 | 2.0 | 4.0 | 0.00 | 0.34 | 0.27 | 86 | 1021.0 |
| 20260507031930 | 41 | 0 | 2.0 | 6.0 | 0.00 | 0.35 | 0.27 | 85 | 1021.1 |
| 20260507031634 | 41 | 0 | 2.0 | 6.0 | 0.00 | 0.36 | 0.27 | 85 | 1021.1 |
| 20260507031509 | 41 | 0 | 2.0 | 6.0 | 0.00 | 0.36 | 0.27 | 85 | 1021.1 |
| 20260507031205 | 41 | 0 | 3.0 | 9.0 | 0.00 | 0.37 | 0.27 | 85 | 1021.1 |
| 20260507030900 | 41 | 0 | 2.0 | 9.0 | 0.00 | 0.36 | 0.27 | 85 | 1021.1 |
| 20260507030640 | 41 | 0 | 3.0 | 9.0 | 0.00 | 0.37 | 0.27 | 85 | 1021.1 |
| 20260507025851 | 42 | 0 | 2.0 | 6.0 | 0.00 | 0.37 | 0.27 | 84 | 1021.1 |
| 20260507025350 | 42 | 0 | 2.0 | 4.0 | 0.00 | 0.37 | 0.27 | 84 | 1021.0 |
| 20260507024845 | 42 | 0 | 2.0 | 5.0 | 0.00 | 0.37 | 0.27 | 84 | 1021.0 |
| 20260507024341 | 43 | 0 | 2.0 | 5.0 | 0.00 | 0.37 | 0.27 | 83 | 1021.1 |
| 20260507024057 | 43 | 0 | 2.0 | 4.0 | 0.00 | 0.38 | 0.27 | 83 | 1020.9 |
| 20260507023941 | 43 | 0 | 2.0 | 4.0 | 0.00 | 0.38 | 0.27 | 83 | 1020.9 |
| 20260507023312 | 43 | 0 | 2.0 | 4.0 | 0.00 | 0.38 | 0.27 | 83 | 1020.9 |
| 20260507022745 | 44 | 0 | 2.0 | 4.0 | 0.00 | 0.39 | 0.27 | 83 | 1020.6 |
| 20260507022241 | 44 | 0 | 2.0 | 4.0 | 0.00 | 0.39 | 0.27 | 82 | 1020.5 |
| 20260507021720 | 44 | 0 | 2.0 | 4.0 | 0.00 | 0.39 | 0.27 | 82 | 1020.6 |
| 20260507021216 | 44 | 0 | 1.0 | 4.0 | 0.00 | 0.39 | 0.27 | 82 | 1020.6 |
| 20260507020657 | 45 | 0 | 1.0 | 2.0 | 0.00 | 0.40 | 0.27 | 81 | 1020.6 |
| 20260507020147 | 45 | 0 | 1.0 | 3.0 | 0.00 | 0.40 | 0.27 | 81 | 1020.6 |
| 20260507015635 | 45 | 0 | 2.0 | 3.0 | 0.00 | 0.40 | 0.27 | 81 | 1020.5 |
| 20260507015139 | 45 | 0 | 2.0 | 4.0 | 0.00 | 0.41 | 0.27 | 80 | 1020.6 |
| 20260507014615 | 46 | 0 | 2.0 | 5.0 | 0.00 | 0.41 | 0.27 | 80 | 1020.5 |
| 20260507014113 | 46 | 0 | 2.0 | 5.0 | 0.00 | 0.42 | 0.27 | 79 | 1020.8 |
| 20260507013547 | 46 | 0 | 3.0 | 8.0 | 0.00 | 0.42 | 0.27 | 79 | 1020.6 |
| 20260507013045 | 46 | 0 | 3.0 | 8.0 | 0.00 | 0.42 | 0.27 | 78 | 1020.6 |
| 20260507012543 | 46 | 0 | 3.0 | 6.0 | 0.00 | 0.42 | 0.27 | 78 | 1020.6 |
| 20260507012024 | 46 | 0 | 3.0 | 10.0 | 0.00 | 0.42 | 0.27 | 77 | 1020.6 |
| 20260507011519 | 46 | 0 | 4.0 | 10.0 | 0.00 | 0.42 | 0.27 | 76 | 1020.6 |
| 20260507010948 | 46 | 0 | 4.0 | 8.0 | 0.00 | 0.43 | 0.27 | 76 | 1020.8 |
| 20260507010432 | 46 | 0 | 4.0 | 8.0 | 0.00 | 0.43 | 0.27 | 75 | 1020.8 |
| 20260507005930 | 46 | 0 | 4.0 | 8.0 | 0.00 | 0.43 | 0.27 | 75 | 1020.6 |
| 20260507005427 | 47 | 0 | 4.0 | 9.0 | 0.00 | 0.43 | 0.27 | 75 | 1020.4 |
| 20260507004901 | 47 | 0 | 4.0 | 12.0 | 0.00 | 0.44 | 0.27 | 74 | 1020.3 |
| 20260507004342 | 47 | 0 | 5.0 | 12.0 | 0.00 | 0.44 | 0.27 | 75 | 1020.4 |
| 20260507003819 | 47 | 0 | 5.0 | 9.0 | 0.00 | 0.44 | 0.27 | 76 | 1020.3 |
| 20260507003300 | 47 | 0 | 5.0 | 9.0 | 0.00 | 0.44 | 0.27 | 77 | 1020.3 |
| 20260507002737 | 47 | 0 | 4.0 | 9.0 | 0.00 | 0.44 | 0.27 | 78 | 1020.6 |
| 20260507002228 | 46 | 0 | 5.0 | 9.0 | 0.00 | 0.44 | 0.27 | 80 | 1020.8 |
| 20260507001725 | 46 | 0 | 4.0 | 8.0 | 0.00 | 0.44 | 0.27 | 80 | 1020.9 |
| 20260507001224 | 46 | 0 | 3.0 | 8.0 | 0.00 | 0.45 | 0.27 | 81 | 1020.9 |
| 20260507000740 | 46 | 0 | 4.0 | 9.0 | 0.00 | 0.45 | 0.27 | 81 | 1020.9 |
| 20260507000223 | 46 | 0 | 5.0 | 10.0 | 0.00 | 0.45 | 0.27 | 81 | 1020.6 |
| 20260506235725 | 46 | 0 | 5.0 | 10.0 | 0.00 | 0.45 | 0.27 | 81 | 1020.8 |
| 20260506235220 | 46 | 0 | 4.0 | 9.0 | 0.00 | 0.45 | 0.27 | 82 | 1020.6 |
| 20260506234715 | 46 | 0 | 5.0 | 10.0 | 0.00 | 0.45 | 0.27 | 82 | 1020.9 |
| 20260506234412 | 46 | 0 | 5.0 | 10.0 | 0.00 | 0.45 | 0.27 | 81 | 1020.9 |
| 20260506234256 | 46 | 0 | 5.0 | 10.0 | 0.00 | 0.45 | 0.27 | 81 | 1020.9 |
| 20260506233918 | 46 | 0 | 5.0 | 9.0 | 0.00 | 0.45 | 0.27 | 78 | 1020.9 |
| 20260506233751 | 46 | 0 | 5.0 | 9.0 | 0.00 | 0.45 | 0.27 | 78 | 1020.9 |
| 20260506233123 | 46 | 0 | 5.0 | 9.0 | 0.00 | 0.45 | 0.27 | 77 | 1020.9 |
| 20260506232826 | 46 | 0 | 5.0 | 11.0 | 0.00 | 0.45 | 0.27 | 76 | 1020.9 |
| 20260506232708 | 46 | 0 | 5.0 | 11.0 | 0.00 | 0.45 | 0.27 | 76 | 1020.9 |
| 20260506232102 | 46 | 0 | 5.0 | 10.0 | 0.00 | 0.45 | 0.27 | 77 | 1020.9 |
| 20260506231602 | 46 | 0 | 6.0 | 10.0 | 0.00 | 0.45 | 0.27 | 77 | 1020.9 |
| 20260506231058 | 46 | 0 | 6.0 | 11.0 | 0.00 | 0.45 | 0.27 | 77 | 1020.9 |
| 20260506230836 | 47 | 0 | 5.0 | 11.0 | 0.00 | 0.45 | 0.27 | 77 | 1020.9 |
| 20260506230830 | 47 | 0 | 5.0 | 11.0 | 0.00 | 0.45 | 0.27 | 77 | 1020.9 |
| 20260506230425 | 47 | 0 | 5.0 | 11.0 | 0.00 | 0.45 | 0.27 | 77 | 1020.9 |
| 20260506225436 | 47 | 0 | 5.0 | 11.0 | 0.00 | 0.45 | 0.27 | 77 | 1020.9 |
| 20260506224910 | 47 | 0 | 5.0 | 11.0 | 0.00 | 0.45 | 0.27 | 77 | 1020.9 |
| 20260506224402 | 47 | 0 | 5.0 | 10.0 | 0.00 | 0.45 | 0.27 | 77 | 1020.9 |
| 20260506223835 | 47 | 0 | 4.0 | 10.0 | 0.00 | 0.45 | 0.27 | 75 | 1021.0 |
| 20260506223328 | 47 | 0 | 4.0 | 9.0 | 0.00 | 0.45 | 0.27 | 74 | 1020.9 |
| 20260506222758 | 47 | 0 | 5.0 | 10.0 | 0.00 | 0.45 | 0.27 | 73 | 1020.9 |
| 20260506222234 | 47 | 0 | 6.0 | 10.0 | 0.00 | 0.45 | 0.27 | 73 | 1020.8 |
| 20260506221737 | 48 | 0 | 6.0 | 13.0 | 0.00 | 0.45 | 0.27 | 72 | 1020.9 |
| 20260506221232 | 48 | 0 | 6.0 | 13.0 | 0.00 | 0.45 | 0.27 | 72 | 1020.9 |
| 20260506220728 | 49 | 0 | 5.0 | 12.0 | 0.00 | 0.45 | 0.27 | 70 | 1021.0 |
| 20260506220202 | 50 | 0 | 4.0 | 10.0 | 0.00 | 0.45 | 0.27 | 68 | 1021.0 |
| 20260506215917 | 50 | 0 | 4.0 | 10.0 | 0.00 | 0.45 | 0.27 | 67 | 1021.0 |
| 20260506215802 | 50 | 0 | 4.0 | 10.0 | 0.00 | 0.45 | 0.27 | 67 | 1021.0 |
| 20260506215133 | 51 | 0 | 4.0 | 10.0 | 0.00 | 0.45 | 0.27 | 65 | 1021.0 |
| 20260506214617 | 51 | 0 | 4.0 | 10.0 | 0.00 | 0.45 | 0.27 | 64 | 1021.1 |
| 20260506214339 | 51 | 0 | 3.0 | 8.0 | 0.00 | 0.46 | 0.27 | 63 | 1021.2 |
| 20260506214206 | 51 | 0 | 3.0 | 8.0 | 0.00 | 0.46 | 0.27 | 63 | 1021.2 |
| 20260506213539 | 51 | 0 | 3.0 | 9.0 | 0.00 | 0.46 | 0.27 | 65 | 1021.1 |
| 20260506213007 | 51 | 0 | 4.0 | 9.0 | 0.00 | 0.46 | 0.27 | 65 | 1021.2 |
| 20260506212443 | 51 | 0 | 3.0 | 9.0 | 0.00 | 0.46 | 0.27 | 67 | 1021.3 |
| 20260506211941 | 51 | 0 | 3.0 | 6.0 | 0.00 | 0.46 | 0.27 | 69 | 1021.4 |
| 20260506211437 | 51 | 0 | 3.0 | 11.0 | 0.00 | 0.46 | 0.27 | 68 | 1021.5 |
| 20260506210914 | 50 | 0 | 4.0 | 11.0 | 0.00 | 0.46 | 0.27 | 70 | 1021.5 |
| 20260506210406 | 50 | 0 | 4.0 | 10.0 | 0.00 | 0.46 | 0.27 | 67 | 1021.6 |
| 20260506205844 | 51 | 0 | 3.0 | 9.0 | 0.00 | 0.46 | 0.27 | 69 | 1021.6 |
| 20260506205341 | 50 | 0 | 3.0 | 8.0 | 0.00 | 0.46 | 0.27 | 70 | 1021.5 |
| 20260506204817 | 49 | 0 | 3.0 | 8.0 | 0.00 | 0.46 | 0.27 | 71 | 1021.6 |
| 20260506204541 | 49 | 0 | 3.0 | 8.0 | 0.00 | 0.46 | 0.27 | 73 | 1021.6 |
| 20260506204415 | 49 | 0 | 3.0 | 8.0 | 0.00 | 0.46 | 0.27 | 73 | 1021.6 |
| 20260506203805 | 49 | 0 | 3.0 | 8.0 | 0.00 | 0.46 | 0.27 | 71 | 1021.6 |
| 20260506203240 | 49 | 0 | 3.0 | 5.0 | 0.00 | 0.46 | 0.27 | 72 | 1021.7 |
| 20260506202711 | 49 | 0 | 3.0 | 4.0 | 0.00 | 0.46 | 0.27 | 73 | 1021.7 |
| 20260506202529 | 49 | 0 | 3.0 | 8.0 | 0.00 | 0.46 | 0.27 | 76 | 1021.9 |
| 20260506201704 | 48 | 0 | 3.0 | 8.0 | 0.00 | 0.46 | 0.27 | 78 | 1021.7 |
| 20260506201146 | 47 | 0 | 3.0 | 8.0 | 0.00 | 0.46 | 0.27 | 80 | 1021.7 |
| 20260506200844 | 47 | 0 | 3.0 | 8.0 | 0.00 | 0.46 | 0.27 | 84 | 1021.7 |
| 20260506200725 | 47 | 0 | 3.0 | 8.0 | 0.00 | 0.46 | 0.27 | 84 | 1021.7 |
| 20260506200107 | 46 | 0 | 2.0 | 6.0 | 0.00 | 0.46 | 0.27 | 85 | 1021.7 |
| 20260506195603 | 45 | 0 | 2.0 | 5.0 | 0.00 | 0.46 | 0.27 | 85 | 1021.9 |
| 20260506195101 | 44 | 0 | 3.0 | 5.0 | 0.00 | 0.46 | 0.27 | 85 | 1022.0 |
| 20260506194556 | 44 | 0 | 3.0 | 5.0 | 0.00 | 0.46 | 0.27 | 84 | 1022.1 |
| 20260506194031 | 44 | 0 | 3.0 | 6.0 | 0.00 | 0.46 | 0.27 | 85 | 1022.1 |
| 20260506193510 | 44 | 0 | 3.0 | 4.0 | 0.00 | 0.46 | 0.27 | 86 | 1022.1 |
| 20260506192958 | 44 | 0 | 3.0 | 5.0 | 0.00 | 0.46 | 0.27 | 85 | 1022.1 |
| 20260506192456 | 44 | 0 | 4.0 | 6.0 | 0.00 | 0.46 | 0.27 | 84 | 1022.1 |
| 20260506191952 | 44 | 0 | 3.0 | 6.0 | 0.00 | 0.46 | 0.27 | 85 | 1022.0 |